This demonstration page uses our WeatherBlox Daily Observations layout. Learn more.

Left ArrowRight Arrow

39.92423, -83.80882

Hourly Observations for February 9, 2016

Temp ( °F °C ) Dew Point ( °F °C ) Humidity (%) Winds ( mph kmh ) Pressure ( in mb ) Visibility ( mi km ) Precip ( " mm )
12:56 am 00:56 Cloudy with Light Snow 24 -4.4 22 -5.5 92 92 WSW 15 24 29.70 1006 6 10 N/A
1:56 am 01:56 Cloudy with Light Snow 23 -5 21 -6.1 92 92 WSW 12 19 29.69 1005 4 6 N/A
2:06 am 02:06 Cloudy with Light Snow 23 -5 21 -6 93 93 WSW 12 19 29.71 1006 3 5 N/A
2:18 am 02:18 Cloudy with Light Snow 23 -5 21 -6 93 93 WSW 14 22 29.71 1006 8 13 N/A
2:37 am 02:37 Cloudy with Mist and Fog 23 -5 21 -6 93 93 WSW 13 20 29.71 1006 6 10 N/A
2:56 am 02:56 Cloudy 23 -5 21 -6.1 92 92 WSW 12 19 29.68 1005 10 16 N/A
3:27 am 03:27 Cloudy with Light Snow 23 -5 21 -6 93 93 WSW 12 19 29.71 1006 5 8 N/A
3:56 am 03:56 Cloudy with Light Snow 22 -5.5 20 -6.6 92 92 WSW 13 20 29.67 1005 9 14 N/A
4:39 am 04:39 Cloudy with Light Snow 21 -6 19 -7 93 93 SW 12 19 29.71 1006 5 8 N/A
4:56 am 04:56 Cloudy with Mist and Fog 22 -5.5 20 -6.6 92 92 SW 12 19 29.68 1005 5 8 N/A
5:36 am 05:36 Cloudy with Mist and Fog 21 -6 19 -7 93 93 SW 12 19 29.71 1006 6 10 N/A
5:56 am 05:56 Cloudy with Light Snow 21 -6.1 20 -6.6 96 96 SW 10 17 29.70 1006 3 4 N/A
6:08 am 06:08 Cloudy with Light Snow 21 -6 19 -7 93 93 SW 12 19 29.71 1006 3 5 N/A
6:21 am 06:21 Cloudy with Light Snow 21 -6 19 -7 93 93 SW 10 17 29.74 1007 3 4 N/A
6:24 am 06:24 Cloudy with Light Snow 21 -6 19 -7 93 93 SW 12 19 29.74 1007 3 5 N/A
6:56 am 06:56 Cloudy with Light Snow 21 -6.1 19 -7.2 92 92 SW 12 19 29.71 1006 3 5 N/A
7:31 am 07:31 Mostly Cloudy with Light Snow 21 -6 19 -7 93 93 SW 12 19 29.74 1007 2 3 N/A
7:35 am 07:35 Cloudy with Light Snow 21 -6 19 -7 93 93 SW 13 20 29.74 1007 2 3 N/A
7:42 am 07:42 Cloudy with Light Snow 21 -6 19 -7 93 93 SW 12 19 29.74 1007 1 2 N/A
7:56 am 07:56 Cloudy with Light Snow 21 -6.1 19 -7.2 92 92 SW 12 19 29.72 1007 2 2 N/A
8:30 am 08:30 Cloudy with Light Snow 21 -6 19 -7 93 93 SW 12 19 29.74 1007 2 3 N/A
8:43 am 08:43 Cloudy with Mist and Fog 21 -6 19 -7 93 93 SW 14 22 29.74 1007 3 5 N/A
8:56 am 08:56 Cloudy with Mist and Fog 22 -5.5 20 -6.6 92 92 SW 15 24 29.73 1007 5 8 N/A
9:25 am 09:25 Cloudy 21 -6 19 -7 93 93 SW 13 20 29.77 1008 10 16 N/A
9:56 am 09:56 Cloudy 22 -5.5 20 -6.6 92 92 WSW 13 20 29.74 1007 10 16 N/A
10:26 am 10:26 Cloudy 23 -5 19 -7 86 86 SW 15 24 29.77 1008 10 16 N/A
10:56 am 10:56 Cloudy 24 -4.4 19 -7.2 81 81 WSW 16 26 29.74 1007 10 16 N/A
11:03 am 11:03 Cloudy 25 -4 19 -7 80 80 WSW 16 26 29.77 1008 10 16 N/A
11:21 am 11:21 Cloudy 25 -4 19 -7 80 80 WSW 16 26 29.77 1008 10 16 N/A
11:56 am 11:56 Cloudy 24 -4.4 19 -7.2 81 81 W 15 24 29.75 1007 10 16 N/A
12:56 pm 12:56 Cloudy 24 -4.4 19 -7.2 81 81 WSW 14 22 29.74 1007 10 16 N/A
1:56 pm 13:56 Cloudy with Light Snow 24 -4.4 20 -6.6 85 85 WSW 15 24 29.74 1007 3 4 N/A
2:09 pm 14:09 Cloudy with Light Snow 25 -4 19 -7 80 80 W 16 26 29.77 1008 2 3 N/A
2:15 pm 14:15 Cloudy with Light Snow 25 -4 19 -7 80 80 WSW 15 24 29.77 1008 1 2 N/A
2:31 pm 14:31 Cloudy with Light Snow 25 -4 21 -6 86 86 WSW 17 28 29.77 1008 1 2 N/A
2:40 pm 14:40 Cloudy with Light Snow 25 -4 19 -7 80 80 WSW 17 28 29.77 1008 1 2 N/A
2:49 pm 14:49 Cloudy with Light Snow 25 -4 21 -6 86 86 WSW 17 28 29.77 1008 1 2 N/A
2:56 pm 14:56 Cloudy with Light Snow 24 -4.4 21 -6.1 88 88 WSW 15 24 29.75 1007 1 2 N/A
3:07 pm 15:07 Cloudy with Light Snow 23 -5 19 -7 86 86 WSW 16 26 29.77 1008 2 2 N/A
3:24 pm 15:24 Cloudy with Light Snow 23 -5 19 -7 86 86 W 18 30 29.77 1008 3 5 N/A
3:39 pm 15:39 Cloudy with Light Snow 23 -5 19 -7 86 86 WSW 13 20 29.80 1009 10 16 N/A
3:46 pm 15:46 Cloudy with Light Snow 23 -5 19 -7 86 86 W 17 28 29.80 1009 10 16 N/A
3:56 pm 15:56 Cloudy with Light Snow 23 -5 19 -7.2 85 85 W 16 26 29.77 1008 6 10 N/A
4:03 pm 16:03 Cloudy with Light Snow 23 -5 19 -7 86 86 W 17 28 29.80 1009 9 14 N/A
4:56 pm 16:56 Cloudy with Light Snow 23 -5 19 -7.2 85 85 W 16 26 29.80 1009 5 8 N/A
5:04 pm 17:04 Cloudy with Light Snow 23 -5 19 -7 86 86 W 16 26 29.83 1010 4 6 N/A
5:56 pm 17:56 Cloudy 24 -4.4 19 -7.2 81 81 W 14 22 29.83 1010 10 16 N/A
6:30 pm 18:30 Cloudy with Light Snow 23 -5 19 -7 86 86 W 13 20 29.85 1011 4 6 N/A
6:56 pm 18:56 Windy with Snow Likely 23 -5 19 -7.2 85 85 W 22 35 29.86 1011 7 11 N/A
7:56 pm 19:56 Windy with Snow Likely 22 -5.5 18 -7.7 85 85 W 21 33 29.88 1012 5 8 N/A
8:56 pm 20:56 Cloudy with Light Snow 21 -6.1 17 -8.3 85 85 W 16 26 29.88 1012 10 16 N/A
9:47 pm 21:47 Cloudy 19 -7 16 -9 86 86 W 16 26 29.94 1014 10 16 N/A
9:56 pm 21:56 Cloudy 20 -6.6 15 -9.4 81 81 W 15 24 29.89 1012 10 16 N/A
10:56 pm 22:56 Cloudy with Light Snow 19 -7.2 14 -10 81 81 W 17 28 29.90 1013 10 16 N/A
11:56 pm 23:56 Cloudy with Light Snow 18 -7.7 13 -10.5 81 81 WSW 16 26 29.91 1013 10 16 N/A

Powered by AerisWeather